STARLINK-3762, 52374

Orbit data source: Space-Track

STARLINK-3762, 52374 is a payload satellite owned by SpaceX/Seattle (US) in LEO that was launched on Fri, 29 Apr 2022 UTC via an FALCON 9 launch vehicle from the Air Force Eastern Test Range (AFETR). Payload-class satellites include a variety of spacecraft equipped with specific instruments for various scientific and technological missions. These include communications satellites like Starlink; space stations such as the ISS; scientific satellites like the Hubble; Earth observation satellites from companies like Planet Labs, Umbra, and HawkEye 360; GPS; miniature CubeSats for education and research; and military/defense satellites.

Loading next visibility...
Identifier
52374, 2022-045AV
Orbit
LEO
Country
Flag of USUS
Related business
Manufacturer
SpaceX/Seattle
Mission
Operational Commercial Communications
Bus & Motor
STARLINK, Unknown motor
Mass
297 kg wet, ~275 kg dry
Launch date (UTC)
2022-04-29 (4 years ago)
Launch vehicle
FALCON 9
Launch site
Air Force Eastern Test Range (AFETR)
Object type
Payload
Rocket body
Debris
Shape & HBR
Box + 1 Pan, 10.1 m
Radar Cross Section
11.087 m², Large (>1 m²)

Expand to show TLE details & history
Last TLE update: 21 hours ago

TLE from 21 hours ago
0 STARLINK-3762
1 52374U 22045AV  25348.89887577  .00001801  00000-0  13120-3 0  9995
2 52374  53.2166 209.7622 0001551  85.1767 274.9402 15.08841367203129
Epoch: 2025-12-14T21:34Z
TLE epoch observation values (Epoch: 2025-12-14T21:34:22.866Z)
Latitude
-0.00004°
Longitude
162.36171°
Altitude
540.544 km
Speed
7.593 km/s
True Right ascension
13h 59m 02s
True Declination
0° 00' 00"
Sunlit
Object was in daylight at epoch
Visualization orbit readout
Latitude
Unknown
Longitude
Unknown
Altitude
Unknown
Speed
Unknown
Apparent Right ascension
Unknown
Apparent Declination
Unknown
Sunlit
N/A
Visualization observer readout
Local Sidereal Time
17:21:59
Azimuth
Unknown
Elevation
Unknown
Doppler factor
Unknown
Orbital elements
Apogee altitude
541.057 km
Perigee altitude
538.911 km
Semi-major axis
6,918.121 km
Eccentricity
0.00016
Inclination
53.2166°
RAAN
209.7622°
Arg. of periapsis
85.1767°
True anomaly
274.92249°
Mean anomaly
274.9402°
Eccentric anomaly
274.93135°
Mean motion
3.77191 °/min
Orbital period
95.44 mins
BSTAR
0.0001312
Loading maneuver chart data...
Computing Atmospheric mass density...
Loading historical data...
Loading historical data...
Loading historical data...
Loading historical data...
Loading historical data...
Loading historical data...
Loading historical data...

Documentation

Showing up to 5 results
|